Theta_e
311 311 312 317 323 321 322 322 325 323 321 324 325 324 325 323 324 329 335 330 333 334 334 331 331 331 330 328 325 322 320 316 311 305 304 304 304 304 303 303 303 303 303 304 304 304 307 312 316
310 310 314 319 321 322 322 323 324 323 323 324 324 323 322 325 327 332 334 326 333 333 334 332 331 330 329 327 323 321 318 312 306 304 304 303 303 303 303 303 303 303 303 302 302 302 303 304 306
309 310 316 320 321 321 323 323 323 321 323 323 322 321 322 325 329 332 334 328 333 333 333 329 330 328 328 326 322 320 314 307 304 304 303 303 303 303 303 303 303 303 303 302 302 302 302 302 302
313 313 313 316 319 319 319 320 319 321 321 321 321 322 323 325 328 332 329 331 332 334 326 323 325 327 327 324 321 315 308 304 304 304 303 303 303 303 304 304 304 303 303 303 303 302 302 302 302
312 314 316 316 317 317 317 318 316 319 320 321 321 322 323 327 325 331 330 332 331 330 323 322 325 327 325 321 317 310 305 304 304 304 303 304 304 305 304 304 304 304 303 303 303 303 303 303 303
314 314 315 316 317 316 316 316 316 317 318 320 320 320 324 324 325 331 332 331 330 329 321 322 325 325 322 318 313 306 305 304 304 304 304 305 305 304 304 304 303 304 305 305 305 305 305 305 305
315 316 316 317 316 315 316 315 316 318 317 317 320 321 325 327 327 323 331 331 330 328 322 324 325 323 320 316 309 305 305 305 304 305 305 305 304 305 303 304 306 305 304 304 304 304 304 304 304
313 316 315 315 315 316 316 316 317 317 318 318 319 320 322 328 321 322 327 328 329 327 326 325 323 321 317 314 308 306 305 305 305 306 306 305 305 303 306 305 303 303 304 305 305 305 306 306 305
312 314 315 316 315 315 315 316 317 316 317 316 319 320 323 321 320 322 322 325 325 326 325 324 322 320 317 313 308 306 306 306 306 306 306 305 303 305 304 303 304 305 305 306 305 304 304 304 306
313 314 315 315 315 315 314 315 316 315 316 317 316 319 323 318 320 321 321 321 321 324 322 320 319 318 316 312 308 307 306 307 307 306 305 304 304 305 303 304 306 306 305 305 306 306 306 310 310
312 314 315 313 312 312 313 313 314 315 316 316 316 316 322 321 319 321 321 323 322 323 319 318 318 317 315 312 309 307 307 308 307 306 305 302 305 303 304 306 306 306 307 310 310 310 310 309 310
312 312 312 312 311 311 312 313 313 313 315 314 313 313 319 323 325 326 327 328 327 325 319 318 317 316 315 312 310 308 308 308 307 306 304 304 304 303 306 307 308 309 310 311 310 310 312 313 309
312 311 311 311 310 310 310 311 312 312 313 313 312 310 316 318 321 324 327 328 327 325 319 318 318 317 315 313 311 309 308 308 307 306 303 305 303 304 307 307 309 311 310 311 310 311 311 311 309
311 311 311 311 311 310 310 311 311 312 312 312 312 311 311 314 317 321 325 327 327 323 319 318 318 317 315 314 312 310 309 309 307 305 302 305 303 305 307 308 310 311 312 310 311 310 312 312 312
310 310 310 311 311 311 310 311 312 311 311 311 310 310 311 310 312 318 322 325 325 321 320 318 318 317 316 314 313 311 309 309 307 304 304 303 304 306 308 309 312 312 312 311 311 311 312 311 310
310 310 310 311 311 310 310 310 312 310 311 312 311 311 310 310 312 315 321 322 322 322 320 319 318 317 316 315 314 312 310 309 306 303 305 303 304 306 309 310 314 309 312 311 311 313 312 311 312
310 309 311 311 309 310 310 311 312 309 309 310 312 311 311 311 313 316 321 320 319 321 319 319 318 317 317 316 314 312 310 309 305 302 305 303 304 307 310 311 310 310 312 312 311 314 312 312 311
310 310 309 310 310 309 310 310 311 311 311 311 313 313 311 311 311 316 320 320 318 318 319 319 318 317 317 316 315 313 311 308 305 302 305 303 304 308 310 311 311 310 313 312 312 312 314 312 312
308 309 309 309 308 308 309 310 311 311 311 312 312 312 313 312 311 310 315 316 319 317 319 318 318 317 317 317 315 313 311 308 304 302 304 303 304 309 310 311 310 310 310 311 311 314 315 312 312
308 307 307 308 308 308 309 310 310 310 311 311 311 312 312 312 311 309 309 308 308 316 317 318 318 317 317 317 315 313 311 307 303 303 304 303 305 309 310 311 311 310 310 310 313 313 313 312 313
309 307 307 307 308 308 308 308 310 311 311 310 311 311 312 311 310 308 309 308 308 313 316 316 317 316 317 317 315 312 309 305 302 304 304 303 304 308 310 311 311 311 310 311 311 311 312 313 314
308 308 308 308 307 307 307 309 311 312 311 311 310 309 309 309 309 309 309 309 309 312 314 315 317 316 317 317 314 312 308 304 301 306 304 303 305 308 310 311 311 311 310 311 311 311 311 313 315
309 308 308 308 308 308 308 308 310 311 310 311 312 311 310 310 309 309 310 309 311 313 314 316 316 317 317 316 314 311 307 303 302 306 304 303 305 308 310 311 311 311 311 311 311 311 311 313 316
307 308 308 308 309 314 310 309 311 312 312 312 312 312 311 310 311 311 311 312 314 315 315 316 316 317 317 315 313 310 306 302 302 306 304 304 305 308 309 311 311 311 310 311 311 311 311 313 314
308 309 319 317 316 316 311 310 311 312 312 311 312 312 311 311 311 312 312 313 314 314 315 315 316 317 316 314 312 308 304 302 303 306 304 304 305 307 309 310 311 310 311 311 311 311 311 312 314
308 309 319 318 317 314 307 310 312 312 311 309 309 310 311 312 312 313 313 313 312 313 315 316 317 317 315 313 310 307 304 301 304 306 305 305 305 306 309 310 312 311 310 311 310 311 311 311 313
308 311 311 314 308 312 312 312 312 312 311 310 308 308 310 312 313 313 314 314 312 314 315 316 316 316 314 312 308 306 304 301 304 306 306 305 306 305 308 309 312 311 310 310 311 312 312 311 313
309 309 310 313 318 316 317 316 317 315 313 312 310 308 309 312 313 314 314 314 314 314 315 316 316 315 313 310 307 305 305 301 303 306 306 306 306 305 307 309 311 312 311 310 311 312 311 311 313
308 311 310 312 314 319 320 317 316 316 315 314 312 309 308 310 312 314 314 313 314 314 314 315 315 314 312 309 307 305 305 302 303 306 306 306 306 305 306 308 309 311 311 311 311 312 312 312 313
309 310 310 314 317 314 316 317 312 314 313 311 311 309 308 307 310 312 313 313 313 313 313 314 314 313 310 308 306 305 305 303 302 305 307 306 306 305 306 307 308 310 312 311 312 313 313 313 313
Wind_Speed
5 5 4 4 6 5 9 3 2 4 3 2 2 5 8 6 7 4 8 6 11 13 11 11 10 10 8 4 2 3 5 9 11 9 7 7 7 7 8 8 8 9 10 11 13 15 16 18 18
3 2 4 5 6 8 4 5 7 3 4 3 2 2 4 5 5 7 8 8 11 12 10 12 10 10 7 4 3 4 7 9 8 7 6 6 7 7 8 9 9 10 11 12 13 14 15 17 18
1 1 7 4 6 7 3 4 4 4 3 2 2 1 2 5 5 9 6 10 12 10 11 11 11 9 7 4 3 5 8 8 7 6 6 7 7 8 9 10 11 12 12 13 14 15 16 17 17
1 3 5 7 9 8 4 1 2 5 3 3 2 3 4 4 5 5 9 12 12 11 9 9 9 9 7 4 4 6 7 6 5 6 6 7 8 9 10 11 12 14 14 15 16 17 18 18 18
3 4 7 7 10 8 5 4 2 5 1 3 4 2 2 3 5 9 11 12 12 8 9 9 9 8 6 5 5 6 5 5 5 6 7 8 9 11 12 13 14 15 16 17 17 18 19 20 20
7 5 7 9 11 6 6 7 7 7 4 3 4 4 4 5 8 11 12 12 11 9 8 9 9 8 6 5 5 5 5 5 5 6 7 9 11 12 13 15 15 15 15 16 16 17 18 19 20
11 6 11 11 8 7 7 3 9 8 8 8 1 4 4 7 11 12 12 12 11 9 8 9 9 8 7 6 5 4 5 5 6 7 8 10 12 14 15 14 14 14 14 15 15 16 18 18 18
8 5 9 7 8 8 3 4 2 7 6 3 3 3 5 12 12 15 14 13 11 10 9 9 9 8 7 7 5 4 5 5 6 8 9 11 13 14 14 13 13 13 15 16 17 18 18 19 19
4 6 9 11 7 1 2 5 4 2 6 6 5 2 6 10 13 15 15 14 13 11 11 11 10 10 8 7 5 4 5 5 7 8 10 12 14 13 13 12 13 14 16 16 16 17 16 16 15
8 9 10 3 5 4 2 5 3 5 10 11 9 6 9 10 13 16 18 17 16 14 14 13 12 11 10 8 6 5 5 5 7 9 11 13 12 12 11 12 13 15 15 15 16 16 15 15 13
6 10 8 5 6 6 7 8 8 8 9 12 11 15 13 13 15 17 17 15 15 14 14 14 13 12 10 9 7 6 5 5 7 8 11 12 12 11 12 13 14 15 15 14 16 15 15 15 14
8 13 14 4 2 4 8 7 9 15 18 2 2 6 16 16 17 18 18 17 17 17 15 14 14 12 12 10 8 7 6 5 7 8 10 10 10 9 11 13 13 14 14 16 18 17 16 12 12
11 13 9 12 11 11 14 17 15 21 19 18 12 13 15 16 17 18 17 17 18 18 17 15 15 13 12 11 10 8 6 6 7 8 10 9 8 9 11 12 12 12 13 14 17 17 16 15 13
4 10 14 14 15 12 9 17 5 12 12 21 23 20 18 18 18 18 20 20 21 20 19 17 16 14 13 12 11 9 7 6 7 8 8 8 6 8 10 10 11 10 11 14 15 17 14 15 15
6 9 13 14 14 9 5 12 17 28 23 15 14 15 16 18 20 23 22 22 22 21 20 18 16 16 14 13 12 10 7 6 6 7 7 6 5 7 9 10 9 12 9 12 11 13 14 15 16
4 4 6 3 10 4 7 15 2 2 10 18 19 19 17 16 19 22 21 23 21 21 22 20 19 17 15 14 12 11 8 6 6 6 6 5 5 6 8 9 9 12 9 10 9 11 14 14 16
7 8 10 8 7 2 12 10 1 1 7 12 13 13 15 12 16 19 21 23 22 22 22 22 20 18 17 15 13 11 8 7 6 5 5 4 5 6 7 8 11 11 10 9 10 12 13 16 17
12 11 12 11 5 7 10 19 17 15 8 9 9 10 13 13 15 19 22 22 21 22 23 23 21 20 18 16 14 12 9 7 6 5 3 2 3 5 6 8 11 9 8 7 7 11 11 11 13
6 10 12 7 1 3 11 18 18 20 19 18 19 17 17 14 13 19 21 22 22 22 24 25 25 23 20 17 15 14 10 8 7 5 3 1 2 3 6 6 10 9 8 7 8 10 10 11 8
11 11 13 9 4 4 13 18 19 19 22 23 23 22 22 17 16 22 25 23 24 25 26 26 26 23 21 18 16 14 10 9 8 5 3 1 1 2 4 6 9 10 9 7 7 8 7 9 11
16 17 13 11 4 11 12 19 21 17 17 23 25 23 22 24 25 24 29 30 23 25 28 29 27 24 22 20 17 14 11 9 8 6 4 2 2 2 2 4 7 8 6 7 7 9 8 9 11
14 12 15 11 5 5 2 9 14 8 8 10 17 21 23 22 23 23 28 29 28 28 29 29 28 26 23 20 17 14 11 8 7 7 5 3 3 3 2 3 6 5 6 6 6 9 7 7 9
3 4 10 10 9 10 11 7 6 9 9 14 14 20 21 20 22 25 26 27 27 29 30 30 28 27 24 21 18 15 12 9 8 8 6 5 4 4 2 2 5 5 6 5 5 7 7 6 8
10 9 7 3 2 6 10 12 11 13 12 11 5 13 16 15 15 16 19 23 26 29 30 31 30 27 25 22 19 15 12 10 9 9 7 6 5 5 3 1 3 4 6 5 6 6 7 5 8
12 11 2 2 3 7 3 10 16 12 7 7 8 8 15 16 17 18 21 24 27 30 31 31 30 28 26 22 19 16 13 11 10 9 8 7 6 6 5 2 2 3 5 7 5 4 5 7 6
20 16 6 7 6 3 2 9 7 7 9 7 9 5 13 16 18 20 21 23 27 30 31 31 31 29 26 23 20 17 14 12 12 11 9 8 7 7 6 3 0 2 4 5 5 2 5 8 8
10 12 9 3 2 3 7 14 13 12 13 12 12 11 16 17 18 20 22 24 27 29 31 30 30 28 26 23 21 17 14 13 13 12 11 9 8 8 7 4 2 2 3 4 2 1 5 8 10
13 14 5 4 7 11 13 19 12 4 10 13 10 11 13 16 18 20 21 23 25 28 29 29 28 27 25 24 21 18 15 14 13 13 11 10 9 9 9 6 4 1 2 5 2 3 7 11 11
9 12 10 8 10 8 7 11 13 14 16 9 11 16 19 23 22 21 22 24 25 27 29 29 29 28 26 25 22 19 16 14 14 13 12 11 9 9 9 8 5 3 2 6 5 7 7 11 11
23 21 23 9 6 11 8 14 4 3 3 3 5 15 18 21 22 21 21 24 26 27 29 29 29 28 27 25 22 20 17 16 14 13 13 11 10 10 10 9 7 4 4 6 9 8 5 9 12
Wind_Direction
306 319 313 275 246 233 253 215 6 172 194 69 25 311 359 353 351 17 142 140 142 151 184 174 198 208 208 216 258 304 314 313 313 317 319 317 317 309 301 302 298 291 282 276 274 270 266 263 266
290 315 271 271 253 233 206 152 193 173 76 122 122 242 250 82 64 112 140 145 145 153 179 179 194 211 210 219 262 296 302 307 313 318 318 316 312 309 309 310 304 300 297 292 285 283 279 275 269
305 172 258 243 250 251 0 169 156 116 142 187 199 264 347 79 96 136 151 153 145 165 184 182 196 194 203 220 260 289 302 310 317 316 314 313 312 310 309 310 307 305 300 298 295 291 287 281 277
244 209 238 251 247 260 276 158 92 157 168 203 264 220 111 120 144 156 156 147 150 180 189 192 195 185 197 215 256 287 301 307 310 313 313 315 316 318 317 315 312 310 307 303 300 294 290 287 280
217 234 244 243 257 255 260 255 238 233 170 178 195 171 114 137 158 144 149 150 154 167 188 191 183 183 195 216 261 287 295 303 311 315 321 325 325 322 323 320 317 312 308 305 303 298 296 294 290
224 264 235 239 241 201 262 246 244 236 221 147 228 229 116 192 170 155 153 154 158 170 179 187 179 188 200 227 265 280 292 303 314 323 327 329 328 326 327 322 317 314 312 307 305 304 303 298 296
257 236 247 266 266 273 250 224 225 247 231 220 229 240 121 161 192 176 156 161 162 174 176 181 185 195 208 233 254 272 291 309 324 328 331 331 330 328 327 323 322 321 318 316 317 311 306 303 300
257 265 247 233 246 251 128 198 270 245 230 125 212 242 183 180 190 181 176 169 169 172 176 175 189 196 217 235 250 273 296 315 326 328 332 331 329 333 332 331 333 329 326 327 322 315 311 307 306
241 247 244 231 232 202 173 232 191 263 247 212 205 250 151 191 189 191 187 183 183 182 182 188 189 193 210 240 245 266 289 312 326 329 334 333 335 337 336 339 339 338 335 333 329 324 323 319 318
231 240 254 350 306 267 272 263 254 239 216 227 217 190 175 199 197 201 202 200 197 193 194 196 200 206 216 231 246 262 287 316 328 330 331 335 338 341 342 347 346 344 347 346 347 341 341 340 329
215 244 302 256 273 289 281 264 242 252 246 237 225 212 193 200 203 211 209 211 202 201 203 201 204 212 218 227 239 254 276 307 321 326 333 338 344 350 355 355 354 357 354 353 350 347 343 338 335
252 245 265 283 287 272 260 281 256 246 250 246 262 203 193 198 206 209 207 202 197 200 206 206 207 214 219 228 232 247 269 300 315 326 334 340 346 355 1 0 3 3 358 354 353 358 345 345 336
239 263 264 263 266 261 270 263 268 267 258 253 247 223 209 214 212 211 209 205 199 201 205 209 211 215 221 225 232 242 262 290 309 323 334 340 348 3 6 8 9 3 355 359 359 0 354 9 355
341 265 268 270 262 253 256 266 251 258 252 248 244 240 227 222 216 209 205 204 202 205 208 211 212 216 221 224 230 239 253 281 302 321 332 339 355 9 10 13 10 357 355 8 9 14 11 5 2
281 286 275 250 248 252 238 260 239 252 249 249 243 235 225 226 220 213 207 202 205 208 211 214 213 216 219 223 228 235 248 273 296 318 328 338 2 12 17 15 4 357 12 10 20 7 14 20 17
246 247 267 57 216 223 200 259 265 59 240 242 249 240 234 237 220 211 204 200 204 206 212 215 215 216 219 222 225 233 242 265 291 318 324 339 11 19 26 20 5 21 26 14 18 13 14 21 22
207 261 232 267 195 193 215 273 41 346 247 254 252 241 232 223 209 205 201 199 205 205 210 215 216 217 219 221 223 231 238 258 284 308 314 336 15 26 37 25 13 30 35 21 20 23 25 44 39
225 225 242 252 146 222 245 261 271 265 257 265 259 241 219 217 212 201 196 202 204 203 208 214 215 216 216 218 222 228 235 250 272 283 293 324 25 38 44 27 12 42 36 25 16 18 17 23 40
291 252 251 262 103 256 258 267 273 280 276 255 255 240 232 225 209 198 199 207 205 205 204 209 211 215 215 214 217 224 230 244 260 264 269 298 44 61 41 30 20 50 51 37 31 12 358 27 38
238 245 251 265 242 237 275 276 281 273 261 254 248 240 230 222 200 201 203 204 209 207 204 206 209 213 213 212 216 222 226 237 253 250 246 260 116 95 51 34 29 43 58 60 21 40 23 30 38
225 236 241 247 321 251 288 281 263 252 242 246 242 242 232 215 207 210 210 214 212 204 202 206 208 208 209 209 212 215 222 232 244 236 235 234 194 142 52 28 23 39 69 72 49 59 38 42 31
231 223 237 253 265 259 359 291 284 279 244 233 238 230 226 221 214 213 213 213 211 207 203 205 206 204 205 208 210 213 220 230 236 226 225 220 202 165 82 16 14 53 86 81 66 64 52 57 52
232 146 214 226 243 283 248 268 264 236 255 262 235 223 218 214 217 210 213 210 204 202 199 199 201 201 203 205 208 210 217 224 226 220 214 210 195 176 132 19 19 35 108 99 77 86 79 70 69
144 119 95 128 216 251 224 222 260 252 242 245 253 201 201 199 199 198 199 195 191 192 193 195 197 199 201 203 207 209 215 222 220 214 209 209 193 187 166 73 2 43 128 119 86 88 100 93 105
196 164 116 202 188 246 49 209 251 291 279 253 268 217 192 190 185 182 182 182 186 188 188 191 193 197 199 202 205 207 212 216 213 211 208 208 204 197 183 152 352 58 137 133 105 86 129 137 141
196 191 186 205 187 249 127 232 261 231 290 265 240 256 192 185 182 181 183 182 187 188 189 191 192 196 200 202 204 205 209 210 209 207 208 205 209 204 196 166 71 72 138 140 131 117 144 153 154
178 213 211 86 95 274 219 253 266 234 245 229 236 215 196 191 183 182 181 185 187 188 190 192 194 196 200 201 203 205 205 209 210 208 209 206 211 203 199 186 128 66 150 157 136 147 174 166 161
201 162 168 216 213 237 249 254 253 271 252 242 219 211 198 191 185 180 181 185 188 190 193 193 197 201 201 200 201 204 205 206 209 208 209 209 207 204 198 196 186 171 170 168 165 161 163 161 159
173 191 205 188 218 211 257 247 238 230 243 245 215 205 195 189 187 184 184 186 189 193 195 197 199 202 202 201 201 203 204 204 208 207 208 212 206 208 202 197 202 190 146 163 145 142 146 155 157
213 210 194 194 182 231 258 260 145 223 227 221 248 198 194 191 188 186 187 188 191 194 198 200 201 204 203 202 203 204 204 204 207 206 209 211 210 207 205 201 201 198 170 178 159 161 155 159 162